DELTA 1 DEB, 7024

Orbit data source: Space-Track

DELTA 1 DEB, 7024 is space debris in SSO originally from a launch on Tue, 06 Nov 1973 UTC launched from the Air Force Western Test Range (AFWTR). Debris objects in space refer to the collection of defunct objects orbiting the Earth. Examples of debris include non-operational satellites, rocket bodies, and fragments generated from explosions, collisions, or faulty payload assembly.

Loading next visibility...
Identifier
7024, 1973-086Q
Orbit
SSO
Country
Flag of USUS
Related business
Manufacturer
Unknown
Mission
Spacecraft
Bus & Motor
Unknown
Mass
Unknown
Launch date (UTC)
1973-11-06 (53 years ago)
Launch vehicle
Unknown
Launch site
Air Force Western Test Range (AFWTR)
Object type
Payload
Rocket body
Debris
Shape & HBR
Unknown shape, 0.1 m
Radar Cross Section
Medium (>0.1 m² and <1 m²)

Expand to show TLE details & history
Last TLE update: 21 hours ago

TLE from 21 hours ago
0 DELTA 1 DEB
1 07024U 73086Q   26263.18296193  .00001870  00000-0  85509-2 0  9990
2 07024 101.8801 342.5230 0061177  60.3548 328.1061 12.78383213443607
Epoch: 2026-09-20T04:23Z
TLE epoch observation values (Epoch: 2026-09-20T04:23:27.910Z)
Latitude
27.47533°
Longitude
-88.67309°
Altitude
1,311.018 km
Speed
7.222 km/s
True Right ascension
22h 25m 05s
True Declination
27° 20' 42"
Sunlit
Object was in full shadow at epoch
Visualization orbit readout
Latitude
Unknown
Longitude
Unknown
Altitude
Unknown
Speed
Unknown
Apparent Right ascension
Unknown
Apparent Declination
Unknown
Sunlit
N/A
Visualization observer readout
Local Sidereal Time
18:02:06
Azimuth
Unknown
Elevation
Unknown
Doppler factor
Unknown
Orbital elements
Apogee altitude
1,392.746 km
Perigee altitude
1,298.244 km
Semi-major axis
7,723.632 km
Eccentricity
0.00612
Inclination
101.8801°
RAAN
342.523°
Arg. of periapsis
60.3548°
True anomaly
327.73329°
Mean anomaly
328.1061°
Eccentric anomaly
327.91994°
Mean motion
3.1975 °/min
Orbital period
112.59 mins
BSTAR
0.0085509
Loading maneuver chart data...
Computing Atmospheric mass density...
Loading historical data...
Loading historical data...
Loading historical data...
Loading historical data...
Loading historical data...
Loading historical data...
Loading historical data...

Documentation

Showing up to 5 results
|